CYGR

Iles-de-la-Madeleine Airport

ICAO Code CYGR
IATA Code YGR
Name Iles-de-la-Madeleine Airport
Location Iles-de-la-Madeleine, Quebec, CA
Elevation 35 Feet / 10.7 Meters
Latitude 47.42500000
Longitude -61.77805556
METAR CYGR 182100Z 18008KT 15SM FEW030 SCT120 BKN150 22/18 A2981 RMK SC2AC2AC2 SLP095 DENSITY ALT 1000FT
Extra information Display NOTAMS
Display Charts
Runway Length Width Surface Elevation
07 4493 ft 150 ft ASP 22 ft
16 3608 ft 150 ft ASP 9 ft
25 4493 ft 150 ft ASP 12 ft
34 3608 ft 150 ft ASP 35 ft